Weather History for Klamath Falls, OR

Change the Weather History Date:

Monday, November 5, 2012

  Actual Average Record
Temperature  
Mean Temperature 51 °F 39 °F  
Max Temperature 68 °F 51 °F 70 °F (1980)
Min Temperature 33 °F 27 °F 14 °F (2011)
Degree Days  
Heating Degree Days 14 26  
Month to date heating degree days 93 126  
Since 1 July heating degree days 796 1042  
Cooling Degree Days 0 0  
Month to date cooling degree days 0 0  
Year to date cooling degree days 177 169  
Moisture  
Dew Point 39 °F    
Average Humidity 93    
Maximum Humidity 100    
Minimum Humidity 48    
Precipitation  
Precipitation 0.00 in 0.07 in 0.63 in (1994)
Month to date precipitation 0.03 0.35  
Year to date precipitation 6.71 11.67  
Sea Level Pressure  
Sea Level Pressure 30.38 in    
Wind  
Wind Speed 1 mph (North)    
Max Wind Speed 7 mph    
Max Gust Speed 8 mph    
Visibility 3 miles    
Events Fog , Snow    
T = Trace of Precipitation, MM = Missing Value Source: NWS Daily Summary

Daily Weather History Graph

Daily Weather History Graph

Search for Another Location

Airport:

Trip Planner

Search our weather history database for the weather conditions in past years. The results will help you decide how hot, cold, wet, or windy it might be!

Date:

Astronomy

Nov. 05, 2012 Rise Set
Actual Time 6:45 AM PST 4:54 PM PST
Civil Twilight 6:16 AM PST 5:24 PM PST
Nautical Twilight 5:42 AM PST 5:57 PM PST
Astronomical Twilight 5:10 AM PST 6:30 PM PST
Moon 10:38 PM PST (11/5) 12:08 PM PST (11/5)
Length of Visible Light 11h 08m
Length of Day
10h 09m
Waning Gibbous, 62% of the Moon is Illuminated
Nov 5
Waning Gibbous
Nov 6
Last Quarter
Nov 13
New
Nov 20
First Quarter
Nov 28
Full

Hourly Weather History & Observations

Time (PST) Temp. Windchill Dew Point Humidity Pressure Visibility Wind Dir Wind Speed Gust Speed Precip Events Conditions
12:01 AM 37.4 °F - 35.6 °F 93% 30.44 in 10.0 mi Calm Calm - N/A   Partly Cloudy
12:20 AM 35.6 °F - 35.6 °F 100% 30.43 in 2.0 mi Calm Calm - N/A   Mostly Cloudy
12:22 AM 35.6 °F - 35.6 °F 100% 30.43 in 0.8 mi Calm Calm - N/A   Mist
12:26 AM 35.6 °F - 35.6 °F 100% 30.43 in 0.2 mi Calm Calm - N/A Fog Fog
12:50 AM 35.6 °F - 35.6 °F 100% 30.43 in 0.2 mi Calm Calm - 0.00 in Fog Fog
12:53 AM 36.0 °F - 35.1 °F 97% 30.40 in 0.2 mi Calm Calm - 0.00 in Fog Fog
12:59 AM 35.6 °F - 35.6 °F 100% 30.43 in 1.0 mi Calm Calm - N/A   Mist
1:11 AM 35.6 °F - 35.6 °F 100% 30.43 in 2.0 mi Calm Calm - N/A   Scattered Clouds
1:20 AM 35.6 °F 32.8 °F 35.6 °F 100% 30.43 in 3.0 mi North 3.5 mph - N/A   Partly Cloudy
1:38 AM 35.6 °F 31.7 °F 33.8 °F 93% 30.43 in 1.8 mi NNW 4.6 mph - N/A   Scattered Clouds
1:53 AM 35.1 °F - 34.0 °F 96% 30.40 in 2.5 mi Calm Calm - N/A   Mostly Cloudy
2:01 AM 33.8 °F - 33.8 °F 100% 30.43 in 0.8 mi Calm Calm - N/A   Mist
2:16 AM 35.6 °F - 35.6 °F 100% 30.43 in 0.2 mi Calm Calm - N/A Fog Fog
2:53 AM 34.0 °F - 34.0 °F 100% 30.40 in 0.5 mi Calm Calm - 0.00 in Fog , Snow Light Snow
3:05 AM 35.6 °F - 33.8 °F 93% 30.42 in 0.5 mi Calm Calm - 0.00 in Fog , Snow Light Snow
3:13 AM 35.6 °F - 35.6 °F 100% 30.42 in 0.2 mi Calm Calm - 0.00 in Fog , Snow Light Snow
3:20 AM 35.6 °F - 35.6 °F 100% 30.42 in 0.2 mi Calm Calm - 0.00 in Fog , Snow Light Snow
3:29 AM 35.6 °F - 35.6 °F 100% 30.42 in 0.2 mi Calm Calm - 0.00 in Fog Fog
3:53 AM 37.0 °F - 36.0 °F 96% 30.38 in 0.2 mi Calm Calm - 0.00 in Fog Fog
4:53 AM 36.0 °F 33.3 °F 36.0 °F 100% 30.39 in 0.2 mi North 3.5 mph - N/A Fog Fog
5:09 AM 35.6 °F - 35.6 °F 100% 30.42 in 0.2 mi Calm Calm - N/A Fog Fog
5:26 AM 33.8 °F 30.8 °F 33.8 °F 100% 30.41 in 0.2 mi SSE 3.5 mph - N/A Fog Fog
5:53 AM 35.1 °F 32.2 °F 35.1 °F 100% 30.43 in 0.2 mi South 3.5 mph - N/A Fog Fog
6:00 AM 33.8 °F - 33.8 °F 100% 30.43 in 0.5 mi Calm Calm - N/A Fog Fog
6:02 AM 33.8 °F - 33.8 °F 100% 30.43 in 0.2 mi Calm Calm - N/A Fog Fog
6:53 AM 37.0 °F - 37.0 °F 100% 30.44 in 0.2 mi Calm Calm - N/A Fog Fog
7:53 AM 39.9 °F - 39.9 °F 100% 30.44 in 0.2 mi Calm Calm - N/A Fog Fog
8:53 AM 43.0 °F - 42.1 °F 97% 30.44 in 0.2 mi Calm Calm - N/A Fog Fog
9:53 AM 44.1 °F - 44.1 °F 100% 30.44 in 0.2 mi Calm Calm - N/A Fog Fog
10:19 AM 44.6 °F - 44.6 °F 100% 30.43 in 0.5 mi Calm Calm - N/A Fog Fog
10:38 AM 46.4 °F - 46.4 °F 100% 30.42 in 0.8 mi Calm Calm - N/A   Mostly Cloudy
10:45 AM 46.4 °F - 46.4 °F 100% 30.42 in 1.0 mi Calm Calm - N/A   Mostly Cloudy
10:53 AM 46.9 °F - 46.0 °F 97% 30.42 in 1.0 mi Calm Calm - N/A   Mostly Cloudy
11:00 AM 46.4 °F - 46.4 °F 100% 30.41 in 3.0 mi Calm Calm - N/A   Mostly Cloudy
11:53 AM 55.0 °F - 46.9 °F 74% 30.37 in 10.0 mi Calm Calm - N/A   Scattered Clouds
12:53 PM 61.0 °F - 46.9 °F 60% 30.33 in 10.0 mi Calm Calm - N/A   Scattered Clouds
1:53 PM 66.0 °F - 46.9 °F 50% 30.30 in 10.0 mi Calm Calm - N/A   Scattered Clouds
2:53 PM 66.9 °F - 46.0 °F 47% 30.28 in 5.0 mi Calm Calm - N/A   Haze
3:53 PM 64.9 °F - 46.9 °F 52% 30.28 in 10.0 mi North 4.6 mph - N/A   Scattered Clouds
4:53 PM 57.0 °F - 46.9 °F 69% 30.28 in 10.0 mi North 5.8 mph - N/A   Scattered Clouds
5:53 PM 51.1 °F - 45.0 °F 80% 30.30 in 10.0 mi North 3.5 mph - N/A   Scattered Clouds
6:53 PM 48.0 °F - 44.1 °F 86% 30.30 in 10.0 mi NNE 3.5 mph - N/A   Scattered Clouds
7:53 PM 46.0 °F - 42.1 °F 86% 30.29 in 10.0 mi Calm Calm - N/A   Clear
8:53 PM 45.0 °F - 42.1 °F 90% 30.29 in 10.0 mi Calm Calm - N/A   Clear
9:53 PM 39.9 °F - 39.0 °F 97% 30.29 in 10.0 mi Calm Calm - N/A   Clear
10:53 PM 41.0 °F - 39.0 °F 93% 30.28 in 10.0 mi Calm Calm - N/A   Clear
11:36 PM 37.4 °F - 37.4 °F 100% 30.28 in 1.5 mi Calm Calm - N/A   Clear
11:47 PM 37.4 °F - 37.4 °F 100% 30.28 in 3.0 mi Calm Calm - N/A   Clear
11:53 PM 37.0 °F - 36.0 °F 96% 30.27 in 6.0 mi Calm Calm - N/A   Clear